Dewpoint
53 52 54 58 61 60 61 63 65 65 66 66 67 67 65 65 68 70 71 73 75 76 76 77 76 76 76 76 75 75 75 75 74 73 73 73 73 72 72 71 71 72 70 69 70 69 69 70 69 67 67 67 67 67 68 68 68 67 67 68 67 67 66
53 50 49 53 60 61 62 64 66 65 66 67 67 68 66 66 68 69 71 73 75 75 76 77 77 76 76 76 76 76 76 76 75 74 73 74 74 73 72 72 72 72 72 71 71 71 71 69 68 68 67 67 67 68 67 68 68 68 67 67 66 67 66
44 52 51 55 59 61 64 64 65 65 66 66 67 67 67 69 69 71 71 72 74 75 76 77 77 76 76 76 76 76 76 76 75 74 73 72 73 72 73 73 72 72 72 72 71 71 70 69 69 68 68 68 66 67 67 67 68 67 67 67 66 66 67
46 52 56 58 61 64 64 64 66 65 65 65 67 68 69 70 70 70 70 72 74 75 75 76 76 76 76 76 76 77 77 76 76 74 73 73 72 74 73 73 73 72 71 71 70 70 70 70 69 69 69 68 67 66 67 67 67 68 68 68 68 67 68
50 51 54 58 59 62 63 64 66 67 65 65 67 70 70 70 70 70 71 72 73 75 74 75 74 76 76 76 76 76 77 77 76 75 74 74 74 74 74 71 73 72 71 71 71 71 71 70 68 68 68 68 66 67 67 67 67 68 67 68 69 68 67
43 52 55 57 59 61 63 63 64 64 65 64 66 69 69 69 69 68 70 72 73 73 75 75 75 76 76 76 76 76 77 77 77 77 75 75 75 73 74 74 73 72 70 71 71 71 70 69 68 68 67 65 65 65 66 67 67 67 67 68 68 67 66
42 47 52 57 59 60 62 63 63 64 64 64 65 68 69 68 68 68 68 70 71 73 73 73 74 74 76 76 76 76 77 76 77 76 76 75 75 75 75 75 74 73 71 72 72 71 69 69 69 68 67 65 66 66 67 68 67 67 68 68 68 68 68
40 45 56 58 57 58 60 64 64 64 64 64 64 66 66 67 67 66 67 67 69 68 70 70 72 74 76 76 76 76 76 76 77 77 76 76 75 75 75 75 74 74 73 72 72 71 69 69 68 68 67 66 66 67 67 67 67 67 68 68 68 68 67
39 52 57 56 56 55 59 63 64 65 66 66 65 68 68 66 65 65 65 66 68 68 69 68 70 73 76 76 76 77 76 76 77 77 76 75 75 74 74 74 75 74 73 72 71 71 70 69 68 69 68 67 67 67 68 68 68 67 67 68 68 67 66
45 52 60 58 57 54 59 62 65 68 68 68 68 70 68 67 67 65 64 64 66 67 67 68 68 71 75 76 76 76 77 76 76 76 75 73 74 74 73 72 73 74 73 72 71 70 71 70 68 68 69 66 67 68 68 66 67 67 67 68 68 67 67
43 52 61 60 59 59 61 61 66 70 70 72 71 68 69 68 67 66 66 65 64 66 67 67 68 70 73 75 74 75 76 76 75 76 75 74 73 73 72 71 72 73 72 72 71 71 70 70 68 69 68 65 68 68 67 66 67 68 66 67 68 67 67
56 58 65 64 62 61 61 67 69 71 72 72 69 68 71 71 68 67 67 67 65 65 67 67 67 68 72 73 74 75 76 76 75 75 75 74 73 72 72 71 72 72 72 72 70 70 69 69 68 68 67 67 69 68 67 66 68 68 67 66 66 67 67
57 64 66 62 63 62 67 69 69 70 71 70 68 70 69 68 68 68 71 70 66 66 68 70 70 71 71 73 73 76 77 76 76 75 75 75 74 73 72 71 69 70 71 71 70 69 68 68 69 68 68 68 68 67 67 68 69 68 68 66 66 67 67
66 62 64 64 63 64 65 67 69 70 71 71 70 70 70 70 69 70 71 70 68 66 67 68 71 71 71 73 75 76 77 77 77 76 76 75 76 75 74 72 71 72 73 72 70 69 69 68 68 67 68 69 67 67 69 69 68 68 68 67 66 66 66
61 62 64 63 64 66 67 67 70 71 71 71 71 71 71 71 71 72 72 71 71 66 68 71 72 72 71 74 75 76 78 78 77 77 77 76 76 75 74 73 73 73 73 73 71 69 68 68 67 68 68 67 67 66 68 68 67 66 67 65 66 66 65
50 52 59 63 65 65 68 69 71 72 72 73 71 72 72 72 72 71 71 71 69 70 70 72 73 74 73 74 76 77 78 77 77 76 76 75 75 75 74 74 73 72 72 72 71 71 70 69 68 67 67 66 66 66 68 67 66 66 64 65 67 67 66
37 37 41 60 67 66 68 70 72 73 73 73 72 72 73 73 73 72 70 71 71 72 71 71 75 75 75 75 76 77 78 77 76 76 76 76 75 75 74 73 73 73 73 72 72 71 72 70 68 66 65 66 66 67 66 64 64 63 62 63 65 66 65
34 40 39 42 54 67 69 70 72 72 73 72 72 73 73 74 73 73 71 73 72 70 70 72 74 75 76 76 77 77 77 77 76 76 76 75 75 75 75 74 73 73 73 72 71 72 71 69 67 67 66 66 67 64 63 65 64 60 61 62 62 66 66
34 35 40 59 63 67 68 68 70 73 72 72 72 73 73 74 72 74 74 75 75 74 73 74 75 76 76 77 77 77 77 77 75 75 75 75 75 75 75 74 74 75 74 72 72 72 71 69 67 68 67 66 65 62 61 62 61 59 60 60 61 61 64
32 33 32 38 53 56 68 69 69 71 73 74 73 72 74 75 74 74 74 75 76 75 75 75 76 77 77 78 78 78 77 76 74 75 75 75 75 75 74 73 73 73 72 72 72 72 71 69 70 67 66 65 64 63 61 62 60 59 58 59 60 60 62
39 41 42 48 55 48 65 70 70 72 73 72 71 73 73 73 73 74 75 76 76 76 76 76 77 77 77 77 78 77 76 75 74 75 75 74 74 74 74 73 74 73 72 71 71 72 71 69 69 68 67 65 62 60 60 61 59 58 57 57 58 59 61
34 33 33 40 58 66 69 68 69 70 72 72 71 71 72 73 73 73 75 76 75 76 76 76 77 77 77 77 77 77 75 74 74 72 74 74 73 73 73 73 73 73 73 72 71 71 69 68 67 66 65 64 61 59 63 64 57 57 56 55 56 58 63
28 32 31 53 49 60 70 70 71 71 74 72 71 71 72 73 73 74 75 75 75 76 76 76 76 77 77 77 77 76 75 74 73 73 73 73 72 72 72 72 72 72 72 71 70 69 67 66 64 64 62 63 62 60 64 62 59 56 55 55 56 58 64
25 29 29 44 62 65 72 71 70 72 71 71 72 73 74 73 74 75 76 76 76 76 76 76 76 76 77 76 77 76 75 75 74 73 72 73 73 71 70 71 71 70 71 70 69 68 67 65 64 63 61 60 59 58 60 59 61 55 54 55 55 59 64
39 34 41 54 61 66 68 70 71 71 72 72 73 74 75 74 75 75 75 76 76 75 74 75 75 75 75 76 76 76 76 75 74 72 71 72 72 71 70 70 71 70 70 69 68 67 67 66 64 63 63 59 59 60 58 56 56 53 54 54 54 59 65
43 39 44 58 61 67 70 72 72 72 71 71 74 75 74 73 74 75 75 75 73 72 73 74 74 76 76 76 76 75 75 74 73 73 71 71 71 71 71 70 69 69 68 68 67 67 65 64 63 62 61 60 59 60 59 58 59 64 53 53 53 55 65
51 47 50 56 60 69 70 71 72 71 72 73 74 72 72 73 74 74 74 74 72 72 72 74 75 76 75 75 74 73 73 72 72 71 70 70 71 70 69 69 68 68 67 66 65 66 66 64 63 62 62 61 61 61 61 61 60 67 53 52 53 54 59
54 57 61 63 69 69 69 69 72 71 70 73 72 72 73 74 74 74 73 71 72 73 74 76 76 75 75 75 73 72 71 71 72 71 69 71 71 70 70 70 69 68 66 65 65 66 65 65 64 63 62 62 62 63 65 65 65 72 55 53 52 53 55
61 61 65 69 69 69 68 69 71 73 74 71 71 72 73 74 74 72 72 73 75 75 75 75 75 75 74 73 73 72 71 71 71 70 69 70 71 70 69 69 68 68 67 66 66 65 65 64 64 63 63 64 65 65 67 68 68 63 62 53 51 51 53
68 70 69 67 66 68 70 73 71 70 69 68 71 73 73 73 73 74 74 74 75 75 74 74 74 73 72 72 72 71 71 70 69 69 70 70 70 70 69 68 68 67 66 66 65 65 65 65 64 65 64 64 66 68 68 68 66 60 59 57 52 50 50
68 67 66 66 68 70 68 66 67 68 70 71 73 73 74 75 75 75 74 74 74 74 74 73 72 71 71 71 71 71 70 69 69 69 70 70 70 68 67 67 67 66 67 66 66 65 64 64 65 65 65 67 66 67 67 67 66 62 59 57 53 52 52
67 68 68 68 68 68 69 69 70 71 72 73 74 74 74 74 74 73 74 74 73 73 73 72 71 71 70 70 69 69 68 68 68 69 69 68 68 68 68 66 66 66 66 65 65 65 64 64 63 64 65 66 66 66 66 66 66 63 60 58 56 56 54
66 66 66 67 67 68 67 68 68 69 70 70 71 70 70 71 72 73 73 73 72 72 72 71 70 69 69 69 68 68 68 68 67 67 68 68 67 67 67 66 66 66 65 65 64 64 64 63 64 63 65 66 67 67 66 66 65 64 62 61 60 60 58
69 69 68 67 68 69 69 68 68 68 69 70 70 69 69 70 70 71 71 70 70 71 71 71 70 68 68 67 67 67 68 67 68 67 66 66 66 66 66 66 65 65 65 64 65 64 63 63 67 65 64 65 67 67 65 63 63 63 62 60 60 60 60
69 70 70 70 69 70 70 70 70 70 69 69 69 69 69 68 67 68 69 69 71 71 70 69 68 68 67 66 66 67 68 67 67 67 66 66 65 61 58 61 68 66 66 62 62 67 64 64 65 67 68 68 67 66 63 63 62 62 56 63 56 59 58
65 66 68 69 70 70 71 71 71 70 69 69 69 68 68 67 68 68 67 69 70 70 70 70 68 67 66 65 65 65 65 65 64 66 65 65 63 61 57 48 43 49 67 63 53 47 47 57 68 64 64 66 67 64 64 61 62 47 45 44 42 42 44
64 64 64 66 67 69 70 71 71 71 71 70 69 68 67 68 67 68 68 70 71 70 70 70 67 65 64 64 62 62 64 63 64 66 66 65 64 64 62 59 55 41 41 46 48 45 40 41 43 46 50 66 61 58 46 48 46 44 43 42 41 39 40
64 64 65 67 68 69 70 70 71 70 70 70 69 68 69 68 68 70 69 70 70 70 70 69 66 64 62 62 61 64 65 63 64 66 66 65 65 65 64 63 62 58 43 40 42 42 41 40 40 41 42 48 57 58 58 48 43 42 41 41 40 40 39